DW5918 Weather Reports


Display with metric or nautical units.
time (UTC)temp
F
wind
direction
speed
MPH
gust
MPH
rain 1hr
in
rain 24hr
in
rain mn
in
humidity
%
barometer
mb
20260905211505 71 100 0.0 2.0 0.00 0.00 0.00 68 1010.4
20260905210055 71 100 0.0 1.0 0.00 0.00 0.00 68 1009.9
20260905204511 70 99 0.0 0.0 0.00 0.00 0.00 68 1010.1
20260905203107 70 99 0.0 1.0 0.00 0.00 0.00 68 1010.1
20260905201526 70 99 0.0 0.0 0.00 0.00 0.00 68 1010.2
20260905200114 70 99 0.0 1.0 0.00 0.00 0.00 68 1010.0
20260905194525 69 99 0.0 4.0 0.00 0.00 0.00 68 1010.1
20260905193113 68 59 0.0 2.0 0.00 0.00 0.00 68 1010.0
20260905190131 67 63 2.0 10.0 0.00 0.00 0.00 68 1010.1
20260905184601 68 61 3.0 10.0 0.00 0.00 0.00 69 1010.0
20260905183015 69 70 3.0 8.0 0.00 0.00 0.00 67 1010.0
20260905181606 71 86 2.0 5.0 0.00 0.00 0.00 64 1010.0
20260905180019 73 150 0.0 2.0 0.00 0.00 0.00 63 1009.9
20260905174612 69 76 0.0 5.0 0.00 0.00 0.00 67 1010.0
20260905173035 68 61 0.0 6.0 0.00 0.00 0.00 68 1010.1
20260905171632 68 76 0.0 0.0 0.00 0.00 0.00 68 1010.0
20260905164506 68 61 1.0 5.0 0.00 0.00 0.00 67 1009.9
20260905163057 67 82 2.0 9.0 0.00 0.00 0.00 67 1009.9
20260905161519 68 94 4.0 7.0 0.00 0.00 0.00 67 1009.8
20260905160124 67 68 3.0 9.0 0.00 0.00 0.00 68 1010.0
20260905154531 67 65 3.0 10.0 0.00 0.00 0.00 68 1010.1
20260905153125 67 40 2.0 11.0 0.00 0.00 0.00 67 1010.2
20260905151543 66 67 6.0 12.0 0.00 0.00 0.00 67 1010.2
20260905150132 66 43 1.0 6.0 0.00 0.00 0.00 67 1010.2
20260905144550 66 65 2.0 9.0 0.00 0.00 0.00 67 1010.1
20260905143018 67 59 1.0 6.0 0.00 0.00 0.00 68 1010.0
20260905141605 67 57 2.0 10.0 0.00 0.00 0.00 68 1010.0
20260905140020 67 312 0.0 13.0 0.00 0.00 0.00 68 1010.1
20260905133034 66 63 0.0 5.0 0.00 0.00 0.00 62 1010.3
20260905131623 66 205 0.0 1.0 0.00 0.00 0.00 60 1010.3
20260905130044 65 202 0.0 3.0 0.00 0.00 0.00 57 1010.4
20260905124635 63 202 0.0 2.0 0.00 0.00 0.00 44 1010.4
20260905123049 62 360 0.0 2.0 0.00 0.00 0.00 31 1010.6
20260905121508 61 10 0.0 1.0 0.00 0.00 0.00 17 1010.5
20260905120106 59 29 0.0 3.0 0.00 0.00 0.00 1 1010.3
20260905114515 58 311 0.0 1.0 0.00 0.00 0.00 1 1010.0
20260905113101 58 311 0.0 0.0 0.00 0.00 0.00 1 1009.9
20260905111544 58 311 0.0 0.0 0.00 0.00 0.00 1 1009.9
20260905110113 58 311 0.0 0.0 0.00 0.00 0.00 1 1009.6
20260905104531 58 311 0.0 1.0 0.00 0.00 0.00 1 1009.4
20260905101547 58 311 0.0 0.0 0.00 0.00 0.00 1 1009.4
20260905100002 58 311 0.0 0.0 0.00 0.00 0.00 5 1009.2
20260905094553 58 311 0.0 1.0 0.00 0.00 0.00 9 1009.1
20260905093020 59 311 0.0 1.0 0.00 0.00 0.00 13 1009.1
20260905091615 59 311 0.0 1.0 0.00 0.00 0.00 15 1009.2
20260905090039 59 311 0.0 2.0 0.00 0.00 0.00 13 1009.1
20260905084629 59 311 0.0 3.0 0.00 0.00 0.00 6 1008.9
20260905083047 58 282 0.0 2.0 0.00 0.00 0.00 4 1008.7
20260905081506 58 283 0.0 1.0 0.00 0.00 0.00 9 1008.7
20260905080101 58 304 0.0 0.0 0.00 0.00 0.00 16 1008.9
20260905074522 59 304 0.0 0.0 0.00 0.00 0.00 23 1008.9
20260905073119 59 304 0.0 0.0 0.00 0.00 0.00 25 1009.0
20260905070130 59 304 0.0 2.0 0.00 0.00 0.00 25 1009.3
20260905064549 59 304 0.0 1.0 0.00 0.00 0.00 25 1009.3
20260905063017 59 304 0.0 0.0 0.00 0.00 0.00 26 1009.3
20260905061616 59 304 0.0 0.0 0.00 0.00 0.00 31 1009.6
20260905060036 59 304 0.0 0.0 0.00 0.00 0.00 37 1009.5
20260905054619 60 304 0.0 0.0 0.00 0.00 0.00 41 1009.8
20260905053105 60 304 0.0 0.0 0.00 0.00 0.00 45 1009.8
20260905051630 60 304 0.0 0.0 0.00 0.00 0.00 47 1010.0
20260905050055 61 304 0.0 0.0 0.00 0.00 0.00 50 1010.0
20260905044521 61 304 0.0 0.0 0.00 0.00 0.00 50 1010.2
20260905043118 61 304 0.0 0.0 0.00 0.00 0.00 53 1010.3
20260905041543 61 304 0.0 0.0 0.00 0.00 0.00 57 1010.1
20260905040136 62 304 0.0 0.0 0.00 0.00 0.00 59 1010.1
20260905034612 62 304 0.0 0.0 0.00 0.00 0.00 60 1009.8
20260905033048 62 304 0.0 0.0 0.00 0.00 0.00 61 1009.7
20260905031628 63 304 0.0 0.0 0.00 0.00 0.00 62 1010.0
20260905030048 63 304 0.0 0.0 0.00 0.00 0.00 65 1010.0
20260905024501 64 304 0.0 0.0 0.00 0.00 0.00 67 1010.2
20260905023105 65 304 0.0 0.0 0.00 0.00 0.00 68 1010.1
20260905021510 65 304 0.0 2.0 0.00 0.00 0.00 68 1010.0
20260905020111 65 289 0.0 3.0 0.00 0.00 0.00 68 1010.1
20260905013129 66 279 0.0 1.0 0.00 0.00 0.00 67 1010.4
20260905011542 66 316 0.0 4.0 0.00 0.00 0.00 67 1010.6
20260905010004 66 281 0.0 1.0 0.00 0.00 0.00 65 1010.5
20260905004556 66 281 0.0 2.0 0.00 0.00 0.00 64 1010.6
20260905003020 66 281 0.0 1.0 0.00 0.00 0.00 61 1010.6
20260905001612 66 289 0.0 0.0 0.00 0.00 0.00 62 1010.2
20260905000034 67 289 0.0 0.0 0.00 0.00 0.00 63 1010.0
20260904234629 67 289 0.0 0.0 0.00 0.00 0.00 65 1009.8
20260904233051 68 289 0.0 0.0 0.00 0.00 0.00 67 1009.8
20260904231507 69 289 0.0 0.0 0.00 0.00 0.00 68 1009.7
20260904230108 70 289 0.0 0.0 0.00 0.00 0.00 68 1009.7
20260904224520 70 289 0.0 1.0 0.00 0.00 0.00 68 1009.7
20260904221539 72 289 0.0 1.0 0.00 0.00 0.00 67 1009.4
20260904220136 73 316 0.0 0.0 0.00 0.00 0.00 66 1009.5
20260904214553 73 316 0.0 3.0 0.00 0.00 0.00 63 1009.4
20260904213026 75 234 0.0 5.0 0.00 0.00 0.00 60 1009.3